Time,TemperatureF,DewpointF,PressureIn,WindDirection,WindDirectionDegrees,WindSpeedMPH,WindSpeedGustMPH,Humidity,HourlyPrecipIn,Conditions,Clouds,dailyrainin,SoftwareType,DateUTC
2013-04-12 00:00:00,62.8,61.7,29.67,West,278,5.0,16.0,96,0.17,,,0.23,meteohub,2013-04-12 04:00:00,
2013-04-12 00:05:00,62.6,61.5,29.67,SSE,160,4.0,13.0,96,0.23,,,0.29,meteohub,2013-04-12 04:05:00,
2013-04-12 00:10:00,61.9,59.2,29.69,South,176,4.0,16.0,91,0.35,,,0.42,meteohub,2013-04-12 04:10:00,
2013-04-12 00:15:00,60.6,58.3,29.70,WSW,243,15.0,16.0,92,0.37,,,0.45,meteohub,2013-04-12 04:15:00,
2013-04-12 00:20:00,59.7,57.7,29.69,SW,221,6.0,20.0,93,0.49,,,0.59,meteohub,2013-04-12 04:20:00,
2013-04-12 00:25:00,59.2,57.4,29.69,SSW,207,3.0,20.0,94,0.54,,,0.66,meteohub,2013-04-12 04:25:00,
2013-04-12 00:30:00,59.0,57.2,29.69,WNW,293,2.0,15.0,94,0.52,,,0.69,meteohub,2013-04-12 04:30:00,
2013-04-12 00:35:00,58.8,57.0,29.68,NW,311,1.0,14.0,94,0.52,,,0.71,meteohub,2013-04-12 04:35:00,
2013-04-12 00:40:00,58.8,57.0,29.67,SW,231,1.0,14.0,94,0.54,,,0.74,meteohub,2013-04-12 04:40:00,
2013-04-12 00:45:00,58.6,57.2,29.67,SW,233,1.0,9.0,95,0.56,,,0.76,meteohub,2013-04-12 04:45:00,
2013-04-12 00:50:00,58.5,57.0,29.67,SW,233,3.0,7.0,95,0.57,,,0.78,meteohub,2013-04-12 04:50:00,
2013-04-12 00:55:00,58.5,57.0,29.68,WSW,248,5.0,6.0,95,0.58,,,0.82,meteohub,2013-04-12 04:55:00,
2013-04-12 01:00:00,58.3,56.8,29.69,West,273,6.0,7.0,95,0.65,,,0.90,meteohub,2013-04-12 05:00:00,
2013-04-12 01:06:00,58.1,56.7,29.68,WSW,250,5.0,14.0,95,0.70,,,1.02,meteohub,2013-04-12 05:06:00,
2013-04-12 01:11:00,58.1,56.7,29.69,SW,230,2.0,14.0,95,0.61,,,1.02,meteohub,2013-04-12 05:11:00,
2013-04-12 01:16:00,58.1,56.7,29.69,West,276,0.0,9.0,95,0.52,,,1.04,meteohub,2013-04-12 05:16:00,
2013-04-12 01:21:00,57.9,56.1,29.69,WSW,247,4.0,10.0,94,0.44,,,1.06,meteohub,2013-04-12 05:21:00,
2013-04-12 01:26:00,57.9,56.1,29.69,WSW,256,4.0,14.0,94,0.40,,,1.07,meteohub,2013-04-12 05:26:00,
2013-04-12 01:31:00,57.9,56.1,29.69,West,278,6.0,14.0,94,0.40,,,1.09,meteohub,2013-04-12 05:31:00,
2013-04-12 01:36:00,57.7,55.8,29.68,ENE,59,1.0,14.0,93,0.40,,,1.12,meteohub,2013-04-12 05:36:00,
2013-04-12 01:41:00,57.6,55.6,29.68,SW,224,12.0,14.0,93,0.41,,,1.14,meteohub,2013-04-12 05:41:00,
2013-04-12 01:46:00,57.6,55.6,29.68,WSW,257,6.0,14.0,93,0.41,,,1.17,meteohub,2013-04-12 05:46:00,
2013-04-12 01:51:00,57.6,55.2,29.69,NNW,335,7.0,16.0,92,0.41,,,1.20,meteohub,2013-04-12 05:51:00,
2013-04-12 01:56:00,57.4,55.0,29.69,SW,229,1.0,16.0,92,0.40,,,1.22,meteohub,2013-04-12 05:56:00,
2013-04-12 02:01:00,57.4,55.4,29.68,West,280,1.0,16.0,93,0.28,,,1.26,meteohub,2013-04-12 06:01:00,
2013-04-12 02:06:00,57.0,55.0,29.68,WNW,294,3.0,13.0,93,0.27,,,1.29,meteohub,2013-04-12 06:06:00,
2013-04-12 02:11:00,56.8,54.9,29.67,South,173,4.0,12.0,93,0.27,,,1.30,meteohub,2013-04-12 06:11:00,
2013-04-12 02:16:00,56.8,54.9,29.66,NW,312,3.0,12.0,93,0.28,,,1.32,meteohub,2013-04-12 06:16:00,
2013-04-12 02:21:00,56.7,54.7,29.65,West,262,2.0,12.0,93,0.28,,,1.34,meteohub,2013-04-12 06:21:00,
2013-04-12 02:26:00,56.8,54.9,29.66,WSW,238,10.0,10.0,93,0.26,,,1.34,meteohub,2013-04-12 06:26:00,
2013-04-12 02:31:00,56.8,54.9,29.66,West,269,1.0,13.0,93,0.24,,,1.34,meteohub,2013-04-12 06:31:00,
2013-04-12 02:37:00,56.8,55.2,29.67,West,260,3.0,13.0,94,0.22,,,1.35,meteohub,2013-04-12 06:37:00,
2013-04-12 02:42:00,56.8,55.2,29.67,SW,230,8.0,10.0,94,0.19,,,1.35,meteohub,2013-04-12 06:42:00,
2013-04-12 02:47:00,56.8,55.2,29.67,West,278,5.0,11.0,94,0.18,,,1.36,meteohub,2013-04-12 06:47:00,
2013-04-12 02:52:00,56.8,55.4,29.67,WSW,257,4.0,11.0,95,0.16,,,1.36,meteohub,2013-04-12 06:52:00,
2013-04-12 02:57:00,56.7,55.2,29.66,West,270,4.0,11.0,95,0.12,,,1.36,meteohub,2013-04-12 06:57:00,
2013-04-12 03:02:00,56.8,55.4,29.66,NW,304,2.0,10.0,95,0.09,,,1.36,meteohub,2013-04-12 07:02:00,
2013-04-12 03:07:00,56.8,55.4,29.66,NNW,347,5.0,11.0,95,0.07,,,1.36,meteohub,2013-04-12 07:07:00,
2013-04-12 03:12:00,57.0,55.6,29.66,SW,219,7.0,12.0,95,0.06,,,1.36,meteohub,2013-04-12 07:12:00,
2013-04-12 03:17:00,57.0,55.6,29.66,West,274,1.0,21.0,95,0.05,,,1.38,meteohub,2013-04-12 07:17:00,
2013-04-12 03:22:00,57.0,55.6,29.65,WNW,291,5.0,21.0,95,0.05,,,1.39,meteohub,2013-04-12 07:22:00,
2013-04-12 03:27:00,57.0,55.6,29.65,West,278,7.0,13.0,95,0.06,,,1.40,meteohub,2013-04-12 07:27:00,
2013-04-12 03:32:00,57.0,55.6,29.64,West,277,1.0,13.0,95,0.07,,,1.42,meteohub,2013-04-12 07:32:00,
2013-04-12 03:37:00,57.0,55.6,29.63,NNW,338,2.0,13.0,95,0.07,,,1.42,meteohub,2013-04-12 07:37:00,
2013-04-12 03:42:00,57.2,55.8,29.63,ESE,117,7.0,15.0,95,0.07,,,1.42,meteohub,2013-04-12 07:42:00,
2013-04-12 03:47:00,57.4,55.9,29.62,West,260,5.0,17.0,95,0.06,,,1.42,meteohub,2013-04-12 07:47:00,
2013-04-12 03:52:00,57.4,55.9,29.62,SW,229,6.0,17.0,95,0.10,,,1.46,meteohub,2013-04-12 07:52:00,
2013-04-12 03:57:00,57.4,55.9,29.62,SSW,208,4.0,14.0,95,0.13,,,1.49,meteohub,2013-04-12 07:57:00,
2013-04-12 04:02:00,57.4,56.3,29.62,WSW,255,8.0,14.0,96,0.14,,,1.50,meteohub,2013-04-12 08:02:00,
2013-04-12 04:07:00,57.6,56.5,29.62,WNW,290,5.0,14.0,96,0.14,,,1.50,meteohub,2013-04-12 08:07:00,
2013-04-12 04:12:00,57.6,56.5,29.61,NNW,338,5.0,15.0,96,0.13,,,1.50,meteohub,2013-04-12 08:12:00,
2013-04-12 04:17:00,57.6,56.5,29.61,SSW,212,6.0,20.0,96,0.11,,,1.50,meteohub,2013-04-12 08:17:00,
2013-04-12 04:22:00,57.7,56.7,29.61,ESE,120,4.0,20.0,96,0.10,,,1.50,meteohub,2013-04-12 08:22:00,
2013-04-12 04:27:00,57.7,56.7,29.60,WSW,237,8.0,20.0,96,0.09,,,1.50,meteohub,2013-04-12 08:27:00,
2013-04-12 04:32:00,57.9,56.8,29.60,West,276,6.0,37.0,96,0.09,,,1.51,meteohub,2013-04-12 08:32:00,
2013-04-12 04:37:00,58.1,57.0,29.60,West,276,11.0,37.0,96,0.09,,,1.51,meteohub,2013-04-12 08:37:00,
2013-04-12 04:42:00,58.1,57.0,29.60,SW,221,2.0,37.0,96,0.09,,,1.51,meteohub,2013-04-12 08:42:00,
2013-04-12 04:47:00,58.1,57.0,29.60,South,169,4.0,22.0,96,0.10,,,1.54,meteohub,2013-04-12 08:47:00,
2013-04-12 04:52:00,58.3,57.2,29.60,SW,224,23.0,23.0,96,0.08,,,1.54,meteohub,2013-04-12 08:52:00,
2013-04-12 04:57:00,58.1,57.0,29.60,West,273,2.0,23.0,96,0.05,,,1.54,meteohub,2013-04-12 08:57:00,
2013-04-12 05:02:00,58.1,57.2,29.60,SW,232,6.0,38.0,97,0.04,,,1.54,meteohub,2013-04-12 09:02:00,
2013-04-12 05:07:00,58.1,57.2,29.59,West,281,7.0,38.0,97,0.05,,,1.55,meteohub,2013-04-12 09:07:00,
2013-04-12 05:12:00,58.1,57.2,29.60,WSW,238,13.0,38.0,97,0.05,,,1.55,meteohub,2013-04-12 09:12:00,
2013-04-12 05:17:00,58.1,57.2,29.60,West,266,5.0,35.0,97,0.05,,,1.55,meteohub,2013-04-12 09:17:00,
2013-04-12 05:22:00,58.1,57.2,29.60,WSW,256,7.0,35.0,97,0.05,,,1.55,meteohub,2013-04-12 09:22:00,
2013-04-12 05:27:00,58.1,57.2,29.61,SSW,203,7.0,35.0,97,0.05,,,1.55,meteohub,2013-04-12 09:27:00,
2013-04-12 05:32:00,58.1,57.2,29.61,SSW,207,12.0,21.0,97,0.04,,,1.55,meteohub,2013-04-12 09:32:00,
2013-04-12 05:38:00,58.1,57.2,29.61,WNW,284,4.0,20.0,97,0.04,,,1.55,meteohub,2013-04-12 09:38:00,
2013-04-12 05:43:00,57.9,57.0,29.61,West,277,6.0,20.0,97,0.02,,,1.55,meteohub,2013-04-12 09:43:00,
2013-04-12 05:48:00,57.9,57.0,29.62,West,276,4.0,24.0,97,0.01,,,1.55,meteohub,2013-04-12 09:48:00,
2013-04-12 05:53:00,57.9,57.0,29.62,WNW,284,5.0,24.0,97,0.01,,,1.55,meteohub,2013-04-12 09:53:00,
2013-04-12 05:58:00,57.9,57.0,29.62,SW,226,2.0,24.0,97,0.01,,,1.55,meteohub,2013-04-12 09:58:00,
2013-04-12 06:03:00,57.9,57.0,29.62,ESE,110,1.0,19.0,97,0.00,,,1.55,meteohub,2013-04-12 10:03:00,
2013-04-12 06:08:00,57.9,57.4,29.62,West,260,1.0,19.0,98,0.00,,,1.55,meteohub,2013-04-12 10:08:00,
2013-04-12 06:13:00,57.9,57.4,29.63,WSW,238,7.0,19.0,98,0.00,,,1.55,meteohub,2013-04-12 10:13:00,
2013-04-12 06:18:00,57.9,57.4,29.62,SSW,193,4.0,17.0,98,0.00,,,1.55,meteohub,2013-04-12 10:18:00,
2013-04-12 06:23:00,57.7,57.2,29.62,WSW,250,6.0,17.0,98,0.00,,,1.55,meteohub,2013-04-12 10:23:00,
2013-04-12 06:28:00,57.7,57.2,29.62,West,263,3.0,17.0,98,0.00,,,1.55,meteohub,2013-04-12 10:28:00,
2013-04-12 06:33:00,57.9,57.4,29.63,NNW,331,4.0,13.0,98,0.00,,,1.55,meteohub,2013-04-12 10:33:00,
2013-04-12 06:38:00,57.9,57.4,29.63,WSW,255,1.0,13.0,98,0.00,,,1.55,meteohub,2013-04-12 10:38:00,
2013-04-12 06:43:00,57.9,57.4,29.63,West,260,4.0,13.0,98,0.00,,,1.55,meteohub,2013-04-12 10:43:00,
2013-04-12 06:48:00,57.9,57.4,29.63,SW,217,5.0,14.0,98,0.01,,,1.56,meteohub,2013-04-12 10:48:00,
2013-04-12 06:53:00,57.9,57.4,29.63,West,276,3.0,14.0,98,0.03,,,1.58,meteohub,2013-04-12 10:53:00,
2013-04-12 06:58:00,57.9,57.4,29.64,SW,222,9.0,14.0,98,0.03,,,1.58,meteohub,2013-04-12 10:58:00,
2013-04-12 07:03:00,57.9,57.4,29.64,WNW,293,1.0,10.0,98,0.03,,,1.58,meteohub,2013-04-12 11:03:00,
2013-04-12 07:08:00,57.9,57.4,29.64,SSW,197,6.0,10.0,98,0.03,,,1.58,meteohub,2013-04-12 11:08:00,
2013-04-12 07:13:00,57.9,57.0,29.65,WSW,238,2.0,10.0,97,0.03,,,1.58,meteohub,2013-04-12 11:13:00,
2013-04-12 07:18:00,57.9,57.0,29.65,WSW,256,3.0,12.0,97,0.03,,,1.58,meteohub,2013-04-12 11:18:00,
2013-04-12 07:23:00,57.9,57.0,29.65,West,263,5.0,13.0,97,0.03,,,1.58,meteohub,2013-04-12 11:23:00,
2013-04-12 07:28:00,57.9,57.0,29.65,WSW,253,3.0,13.0,97,0.03,,,1.58,meteohub,2013-04-12 11:28:00,
2013-04-12 07:33:00,57.9,57.0,29.65,SSW,198,1.0,13.0,97,0.03,,,1.58,meteohub,2013-04-12 11:33:00,
2013-04-12 07:38:00,57.9,57.0,29.65,West,260,1.0,11.0,97,0.03,,,1.58,meteohub,2013-04-12 11:38:00,
2013-04-12 07:43:00,57.9,57.0,29.65,SSW,200,3.0,8.0,97,0.03,,,1.58,meteohub,2013-04-12 11:43:00,
2013-04-12 07:48:00,58.1,57.0,29.66,WSW,238,2.0,8.0,96,0.01,,,1.58,meteohub,2013-04-12 11:48:00,
2013-04-12 07:53:00,58.1,57.0,29.66,WSW,246,5.0,8.0,96,0.00,,,1.58,meteohub,2013-04-12 11:53:00,
2013-04-12 07:58:00,58.1,56.7,29.66,SW,235,2.0,8.0,95,0.00,,,1.58,meteohub,2013-04-12 11:58:00,
2013-04-12 08:03:00,58.3,56.5,29.66,WSW,238,2.0,8.0,94,0.00,,,1.58,meteohub,2013-04-12 12:03:00,
2013-04-12 08:08:00,58.6,56.3,29.66,WSW,243,1.0,6.0,92,0.00,,,1.58,meteohub,2013-04-12 12:08:00,
2013-04-12 08:13:00,58.8,56.1,29.66,West,264,1.0,7.0,91,0.00,,,1.58,meteohub,2013-04-12 12:13:00,
2013-04-12 08:18:00,59.2,55.9,29.66,WSW,250,1.0,7.0,89,0.00,,,1.58,meteohub,2013-04-12 12:18:00,
2013-04-12 08:23:00,59.5,55.6,29.66,West,260,4.0,7.0,87,0.00,,,1.58,meteohub,2013-04-12 12:23:00,
2013-04-12 08:28:00,59.9,55.4,29.66,West,264,6.0,10.0,85,0.00,,,1.58,meteohub,2013-04-12 12:28:00,
2013-04-12 08:33:00,60.3,55.4,29.66,West,278,3.0,10.0,84,0.00,,,1.58,meteohub,2013-04-12 12:33:00,
2013-04-12 08:38:00,60.4,54.5,29.66,West,267,2.0,10.0,81,0.00,,,1.58,meteohub,2013-04-12 12:38:00,
2013-04-12 08:44:00,60.6,55.0,29.67,West,269,1.0,9.0,82,0.00,,,1.58,meteohub,2013-04-12 12:44:00,
2013-04-12 08:49:00,60.8,54.9,29.67,WSW,247,2.0,9.0,81,0.00,,,1.58,meteohub,2013-04-12 12:49:00,
2013-04-12 08:54:00,61.2,54.3,29.67,WSW,247,3.0,9.0,78,0.00,,,1.58,meteohub,2013-04-12 12:54:00,
2013-04-12 08:59:00,61.2,53.6,29.67,West,264,10.0,10.0,76,0.00,,,1.58,meteohub,2013-04-12 12:59:00,
2013-04-12 09:04:00,61.3,53.8,29.67,West,264,2.0,11.0,76,0.00,,,1.58,meteohub,2013-04-12 13:04:00,
2013-04-12 09:09:00,61.5,54.3,29.67,NW,310,1.0,11.0,77,0.00,,,1.58,meteohub,2013-04-12 13:09:00,
2013-04-12 09:14:00,61.9,54.7,29.67,WSW,245,4.0,11.0,77,0.00,,,1.58,meteohub,2013-04-12 13:14:00,
2013-04-12 09:19:00,62.1,53.6,29.68,South,184,2.0,8.0,74,0.00,,,1.58,meteohub,2013-04-12 13:19:00,
2013-04-12 09:24:00,62.1,53.6,29.68,West,276,2.0,6.0,74,0.00,,,1.58,meteohub,2013-04-12 13:24:00,
2013-04-12 09:29:00,61.9,53.4,29.68,West,263,2.0,8.0,74,0.00,,,1.58,meteohub,2013-04-12 13:29:00,
2013-04-12 09:34:00,61.9,53.4,29.68,West,269,1.0,8.0,74,0.00,,,1.58,meteohub,2013-04-12 13:34:00,
2013-04-12 09:39:00,61.5,53.2,29.68,West,265,1.0,7.0,74,0.00,,,1.58,meteohub,2013-04-12 13:39:00,
2013-04-12 09:44:00,61.9,53.8,29.68,WSW,253,0.0,8.0,75,0.00,,,1.58,meteohub,2013-04-12 13:44:00,
2013-04-12 09:49:00,62.4,54.0,29.68,NW,304,1.0,8.0,74,0.00,,,1.58,meteohub,2013-04-12 13:49:00,
2013-04-12 09:54:00,63.1,53.6,29.67,West,261,6.0,8.0,71,0.00,,,1.58,meteohub,2013-04-12 13:54:00,
2013-04-12 09:59:00,63.5,53.6,29.67,West,267,4.0,10.0,70,0.00,,,1.58,meteohub,2013-04-12 13:59:00,
2013-04-12 10:04:00,63.9,53.1,29.67,SSW,209,0.0,11.0,68,0.00,,,1.58,meteohub,2013-04-12 14:04:00,
2013-04-12 10:09:00,64.0,53.2,29.67,SSW,195,2.0,11.0,68,0.00,,,1.58,meteohub,2013-04-12 14:09:00,
2013-04-12 10:14:00,64.4,53.6,29.67,SW,235,2.0,11.0,68,0.00,,,1.58,meteohub,2013-04-12 14:14:00,
2013-04-12 10:19:00,64.8,53.6,29.67,West,281,2.0,11.0,67,0.00,,,1.58,meteohub,2013-04-12 14:19:00,
2013-04-12 10:24:00,64.8,52.7,29.67,SE,124,2.0,9.0,65,0.00,,,1.58,meteohub,2013-04-12 14:24:00,
2013-04-12 10:29:00,64.9,52.0,29.67,West,279,9.0,9.0,63,0.00,,,1.58,meteohub,2013-04-12 14:29:00,
2013-04-12 10:34:00,65.1,51.3,29.67,WNW,297,2.0,13.0,61,0.00,,,1.58,meteohub,2013-04-12 14:34:00,
2013-04-12 10:39:00,65.1,51.3,29.67,WNW,298,4.0,13.0,61,0.00,,,1.58,meteohub,2013-04-12 14:39:00,
2013-04-12 10:44:00,65.5,51.6,29.67,SW,221,3.0,13.0,61,0.00,,,1.58,meteohub,2013-04-12 14:44:00,
2013-04-12 10:50:00,65.7,50.5,29.68,West,280,9.0,13.0,58,0.00,,,1.58,meteohub,2013-04-12 14:50:00,
2013-04-12 10:55:00,65.7,49.5,29.68,WSW,238,12.0,14.0,56,0.00,,,1.58,meteohub,2013-04-12 14:55:00,
2013-04-12 11:00:00,65.8,49.6,29.68,West,279,6.0,17.0,56,0.00,,,1.58,meteohub,2013-04-12 15:00:00,
2013-04-12 11:05:00,66.0,49.8,29.68,SW,231,7.0,22.0,56,0.00,,,1.58,meteohub,2013-04-12 15:05:00,
2013-04-12 11:10:00,66.0,48.9,29.68,NW,324,7.0,22.0,54,0.00,,,1.58,meteohub,2013-04-12 15:10:00,
2013-04-12 11:15:00,66.0,48.4,29.68,South,188,2.0,22.0,53,0.00,,,1.58,meteohub,2013-04-12 15:15:00,
2013-04-12 11:20:00,65.8,47.7,29.68,SW,222,5.0,18.0,52,0.00,,,1.58,meteohub,2013-04-12 15:20:00,
2013-04-12 11:25:00,66.2,49.1,29.68,WSW,246,5.0,19.0,54,0.00,,,1.58,meteohub,2013-04-12 15:25:00,
2013-04-12 11:30:00,66.6,48.9,29.68,WNW,283,5.0,19.0,53,0.00,,,1.58,meteohub,2013-04-12 15:30:00,
2013-04-12 11:35:00,66.9,47.7,29.68,West,267,3.0,19.0,50,0.00,,,1.58,meteohub,2013-04-12 15:35:00,
2013-04-12 11:40:00,66.9,47.1,29.68,WSW,251,3.0,16.0,49,0.00,,,1.58,meteohub,2013-04-12 15:40:00,
2013-04-12 11:45:00,67.1,46.8,29.68,West,278,6.0,16.0,48,0.00,,,1.58,meteohub,2013-04-12 15:45:00,
2013-04-12 11:50:00,67.3,46.4,29.68,West,264,7.0,12.0,47,0.00,,,1.58,meteohub,2013-04-12 15:50:00,
2013-04-12 11:55:00,67.5,46.6,29.68,SSE,165,6.0,15.0,47,0.00,,,1.58,meteohub,2013-04-12 15:55:00,
2013-04-12 12:00:00,67.8,46.9,29.68,West,273,6.0,15.0,47,0.00,,,1.58,meteohub,2013-04-12 16:00:00,
2013-04-12 12:05:00,68.2,46.0,29.68,SW,232,9.0,13.0,45,0.00,,,1.58,meteohub,2013-04-12 16:05:00,
2013-04-12 12:10:00,67.8,45.7,29.68,WSW,239,5.0,12.0,45,0.00,,,1.58,meteohub,2013-04-12 16:10:00,
2013-04-12 12:15:00,67.8,46.2,29.68,WNW,293,2.0,12.0,46,0.00,,,1.58,meteohub,2013-04-12 16:15:00,
2013-04-12 12:20:00,68.2,44.2,29.68,NNW,340,5.0,12.0,42,0.00,,,1.58,meteohub,2013-04-12 16:20:00,
2013-04-12 12:25:00,68.2,44.8,29.68,SW,222,3.0,12.0,43,0.00,,,1.58,meteohub,2013-04-12 16:25:00,
2013-04-12 12:30:00,68.5,44.6,29.68,West,260,7.0,12.0,42,0.00,,,1.58,meteohub,2013-04-12 16:30:00,
2013-04-12 12:35:00,68.5,43.9,29.68,WNW,283,2.0,12.0,41,0.00,,,1.58,meteohub,2013-04-12 16:35:00,
2013-04-12 12:40:00,68.5,43.9,29.68,South,188,7.0,10.0,41,0.00,,,1.58,meteohub,2013-04-12 16:40:00,
2013-04-12 12:45:00,69.1,45.0,29.68,West,266,6.0,10.0,42,0.00,,,1.58,meteohub,2013-04-12 16:45:00,
2013-04-12 12:50:00,69.1,44.4,29.68,SW,231,5.0,10.0,41,0.00,,,1.58,meteohub,2013-04-12 16:50:00,
2013-04-12 12:55:00,69.1,43.2,29.68,WNW,301,9.0,13.0,39,0.00,,,1.58,meteohub,2013-04-12 16:55:00,
2013-04-12 13:00:00,69.3,41.2,29.68,West,264,3.0,13.0,36,0.00,,,1.58,meteohub,2013-04-12 17:00:00,
2013-04-12 13:05:00,68.9,39.4,29.68,SW,228,4.0,13.0,34,0.00,,,1.58,meteohub,2013-04-12 17:05:00,
2013-04-12 13:10:00,69.1,41.0,29.68,WSW,238,5.0,13.0,36,0.00,,,1.58,meteohub,2013-04-12 17:10:00,
2013-04-12 13:15:00,68.7,37.6,29.68,WSW,256,10.0,13.0,32,0.00,,,1.58,meteohub,2013-04-12 17:15:00,
2013-04-12 13:20:00,68.7,38.5,29.68,WNW,294,7.0,10.0,33,0.00,,,1.58,meteohub,2013-04-12 17:20:00,
2013-04-12 13:25:00,68.9,37.8,29.68,NNW,338,2.0,11.0,32,0.00,,,1.58,meteohub,2013-04-12 17:25:00,
2013-04-12 13:30:00,69.1,38.8,29.68,West,260,5.0,11.0,33,0.00,,,1.58,meteohub,2013-04-12 17:30:00,
2013-04-12 13:35:00,69.3,38.8,29.68,South,191,6.0,14.0,33,0.00,,,1.58,meteohub,2013-04-12 17:35:00,
2013-04-12 13:41:00,69.4,38.3,29.68,WNW,284,3.0,13.0,32,0.00,,,1.58,meteohub,2013-04-12 17:41:00,
2013-04-12 13:46:00,69.6,39.9,29.68,West,260,5.0,12.0,34,0.00,,,1.58,meteohub,2013-04-12 17:46:00,
2013-04-12 13:51:00,70.0,38.8,29.68,NW,320,6.0,11.0,32,0.00,,,1.58,meteohub,2013-04-12 17:51:00,
2013-04-12 13:57:00,69.8,38.7,29.68,SSW,212,6.0,10.0,32,0.00,,,1.58,meteohub,2013-04-12 17:57:00,
2013-04-12 14:02:00,70.0,38.8,29.68,SW,229,6.0,11.0,32,0.00,,,1.58,meteohub,2013-04-12 18:02:00,
2013-04-12 14:07:00,70.0,37.0,29.68,WNW,298,7.0,12.0,30,0.00,,,1.58,meteohub,2013-04-12 18:07:00,
2013-04-12 14:12:00,69.6,37.6,29.68,West,281,7.0,17.0,31,0.00,,,1.58,meteohub,2013-04-12 18:12:00,
2013-04-12 14:17:00,70.0,38.8,29.68,West,260,3.0,17.0,32,0.00,,,1.58,meteohub,2013-04-12 18:17:00,
2013-04-12 14:23:00,69.6,36.9,29.68,NW,315,2.0,17.0,30,0.00,,,1.58,meteohub,2013-04-12 18:23:00,
2013-04-12 14:28:00,69.8,37.8,29.68,SW,228,5.0,15.0,31,0.00,,,1.58,meteohub,2013-04-12 18:28:00,
2013-04-12 15:26:00,70.2,33.6,29.68,WNW,287,7.0,13.0,26,0.00,,,1.58,meteohub,2013-04-12 19:26:00,
2013-04-12 15:27:00,70.2,33.6,29.68,WNW,285,4.0,13.0,26,0.00,,,1.58,meteohub,2013-04-12 19:27:00,
2013-04-12 15:32:00,70.3,34.7,29.68,West,259,6.0,14.0,27,0.00,,,1.58,meteohub,2013-04-12 19:32:00,
2013-04-12 15:37:00,70.5,34.0,29.68,NW,306,1.0,14.0,26,0.00,,,1.58,meteohub,2013-04-12 19:37:00,
2013-04-12 15:42:00,71.1,35.4,29.68,NE,36,1.0,11.0,27,0.00,,,1.58,meteohub,2013-04-12 19:42:00,
2013-04-12 15:47:00,71.2,35.6,29.68,SSW,194,5.0,11.0,27,0.00,,,1.58,meteohub,2013-04-12 19:47:00,
2013-04-12 15:52:00,70.9,35.2,29.68,WSW,253,5.0,11.0,27,0.00,,,1.58,meteohub,2013-04-12 19:52:00,
2013-04-12 15:57:00,70.9,35.2,29.68,NW,315,1.0,11.0,27,0.00,,,1.58,meteohub,2013-04-12 19:57:00,
2013-04-12 16:02:00,70.5,34.9,29.68,West,274,5.0,9.0,27,0.00,,,1.58,meteohub,2013-04-12 20:02:00,
2013-04-12 16:07:00,70.5,37.6,29.68,West,278,2.0,9.0,30,0.00,,,1.58,meteohub,2013-04-12 20:07:00,
2013-04-12 16:12:00,69.6,37.6,29.68,NW,314,1.0,11.0,31,0.00,,,1.58,meteohub,2013-04-12 20:12:00,
2013-04-12 16:17:00,69.3,38.8,29.68,SW,228,2.0,11.0,33,0.00,,,1.58,meteohub,2013-04-12 20:17:00,
2013-04-12 16:22:00,69.4,39.0,29.68,NE,43,5.0,12.0,33,0.00,,,1.58,meteohub,2013-04-12 20:22:00,
2013-04-12 16:27:00,69.3,39.7,29.68,North,354,5.0,18.0,34,0.00,,,1.58,meteohub,2013-04-12 20:27:00,
2013-04-12 16:32:00,69.4,39.9,29.68,North,0,0.0,18.0,34,0.00,,,1.58,meteohub,2013-04-12 20:32:00,
2013-04-12 16:37:00,69.3,37.4,29.69,WSW,256,5.0,18.0,31,0.00,,,1.58,meteohub,2013-04-12 20:37:00,
2013-04-12 16:43:00,68.7,39.2,29.69,NNW,335,5.0,11.0,34,0.00,,,1.58,meteohub,2013-04-12 20:43:00,
2013-04-12 16:48:00,68.2,39.6,29.69,NW,311,4.0,11.0,35,0.00,,,1.58,meteohub,2013-04-12 20:48:00,
2013-04-12 16:53:00,67.8,39.2,29.69,NNE,20,8.0,11.0,35,0.00,,,1.58,meteohub,2013-04-12 20:53:00,
2013-04-12 16:58:00,67.3,39.4,29.69,NNW,338,1.0,12.0,36,0.00,,,1.58,meteohub,2013-04-12 20:58:00,
2013-04-12 17:03:00,67.5,39.6,29.69,West,281,0.0,12.0,36,0.00,,,1.58,meteohub,2013-04-12 21:03:00,
2013-04-12 17:08:00,67.8,39.2,29.70,NNE,13,5.0,12.0,35,0.00,,,1.58,meteohub,2013-04-12 21:08:00,
2013-04-12 17:13:00,67.1,37.0,29.70,NE,51,5.0,11.0,33,0.00,,,1.58,meteohub,2013-04-12 21:13:00,
2013-04-12 17:18:00,67.1,36.3,29.70,West,267,6.0,15.0,32,0.00,,,1.58,meteohub,2013-04-12 21:18:00,
2013-04-12 17:23:00,67.3,35.6,29.70,WNW,297,4.0,15.0,31,0.00,,,1.58,meteohub,2013-04-12 21:23:00,
2013-04-12 17:28:00,66.9,35.2,29.70,NNE,16,7.0,14.0,31,0.00,,,1.58,meteohub,2013-04-12 21:28:00,
2013-04-12 17:33:00,67.1,35.4,29.71,North,8,2.0,16.0,31,0.00,,,1.58,meteohub,2013-04-12 21:33:00,
2013-04-12 17:38:00,67.1,35.4,29.71,NNW,328,5.0,16.0,31,0.00,,,1.58,meteohub,2013-04-12 21:38:00,
2013-04-12 17:43:00,66.9,34.5,29.71,WNW,300,5.0,16.0,30,0.00,,,1.58,meteohub,2013-04-12 21:43:00,
2013-04-12 17:48:00,67.1,35.4,29.71,WNW,289,3.0,12.0,31,0.00,,,1.58,meteohub,2013-04-12 21:48:00,
2013-04-12 17:53:00,66.6,33.3,29.71,NNE,32,8.0,12.0,29,0.00,,,1.58,meteohub,2013-04-12 21:53:00,
2013-04-12 17:58:00,66.2,33.8,29.71,NE,38,9.0,14.0,30,0.00,,,1.58,meteohub,2013-04-12 21:58:00,
2013-04-12 18:03:00,66.0,32.9,29.71,North,3,5.0,14.0,29,0.00,,,1.58,meteohub,2013-04-12 22:03:00,
2013-04-12 18:08:00,66.2,33.8,29.71,NNW,335,0.0,14.0,30,0.00,,,1.58,meteohub,2013-04-12 22:08:00,
2013-04-12 18:13:00,66.7,34.3,29.71,NW,307,4.0,14.0,30,0.00,,,1.58,meteohub,2013-04-12 22:13:00,
2013-04-12 18:18:00,66.7,31.6,29.71,North,4,2.0,14.0,27,0.00,,,1.58,meteohub,2013-04-12 22:18:00,
2013-04-12 18:23:00,66.4,30.4,29.71,NNE,22,7.0,7.0,26,0.00,,,1.58,meteohub,2013-04-12 22:23:00,
2013-04-12 18:28:00,66.0,30.2,29.71,WSW,253,6.0,12.0,26,0.00,,,1.58,meteohub,2013-04-12 22:28:00,
2013-04-12 18:33:00,65.5,29.7,29.71,NNW,330,1.0,13.0,26,0.00,,,1.58,meteohub,2013-04-12 22:33:00,
2013-04-12 18:38:00,65.5,29.7,29.72,WSW,253,4.0,13.0,26,0.00,,,1.58,meteohub,2013-04-12 22:38:00,
2013-04-12 18:43:00,65.1,28.4,29.72,WSW,238,6.0,11.0,25,0.00,,,1.58,meteohub,2013-04-12 22:43:00,
2013-04-12 18:48:00,64.9,29.3,29.72,NNW,333,1.0,11.0,26,0.00,,,1.58,meteohub,2013-04-12 22:48:00,
2013-04-12 18:53:00,64.8,30.0,29.73,SW,233,2.0,8.0,27,0.00,,,1.58,meteohub,2013-04-12 22:53:00,
2013-04-12 18:58:00,64.8,29.1,29.73,SW,218,5.0,8.0,26,0.00,,,1.58,meteohub,2013-04-12 22:58:00,
2013-04-12 19:03:00,64.6,29.8,29.73,NNW,330,4.0,8.0,27,0.00,,,1.58,meteohub,2013-04-12 23:03:00,
2013-04-12 19:08:00,64.8,30.0,29.73,West,278,1.0,8.0,27,0.00,,,1.58,meteohub,2013-04-12 23:08:00,
2013-04-12 19:13:00,64.6,29.8,29.73,West,267,5.0,8.0,27,0.00,,,1.58,meteohub,2013-04-12 23:13:00,
2013-04-12 19:18:00,64.2,29.5,29.73,WSW,253,3.0,8.0,27,0.00,,,1.58,meteohub,2013-04-12 23:18:00,
2013-04-12 19:23:00,64.0,29.3,29.73,NNW,344,1.0,8.0,27,0.00,,,1.58,meteohub,2013-04-12 23:23:00,
2013-04-12 19:28:00,63.1,29.5,29.74,South,179,1.0,8.0,28,0.00,,,1.58,meteohub,2013-04-12 23:28:00,
2013-04-12 19:33:00,62.2,29.7,29.74,SW,231,2.0,8.0,29,0.00,,,1.58,meteohub,2013-04-12 23:33:00,
2013-04-12 19:38:00,61.5,30.6,29.74,NNW,330,2.0,7.0,31,0.00,,,1.58,meteohub,2013-04-12 23:38:00,
2013-04-12 19:43:00,61.0,30.9,29.74,West,270,2.0,7.0,32,0.00,,,1.58,meteohub,2013-04-12 23:43:00,
2013-04-12 19:48:00,60.6,31.3,29.74,West,280,0.0,7.0,33,0.00,,,1.58,meteohub,2013-04-12 23:48:00,
2013-04-12 19:54:00,60.1,31.6,29.74,West,270,2.0,5.0,34,0.00,,,1.58,meteohub,2013-04-12 23:54:00,
2013-04-12 19:59:00,59.5,31.8,29.74,NW,321,0.0,4.0,35,0.00,,,1.58,meteohub,2013-04-12 23:59:00,
2013-04-12 20:04:00,59.2,32.2,29.74,West,266,2.0,5.0,36,0.00,,,1.58,meteohub,2013-04-13 00:04:00,
2013-04-12 20:09:00,58.8,32.5,29.75,NW,325,0.0,5.0,37,0.00,,,0.00,meteohub,2013-04-13 00:09:00,
2013-04-12 20:14:00,58.6,32.4,29.75,SW,228,0.0,7.0,37,0.00,,,0.00,meteohub,2013-04-13 00:14:00,
2013-04-12 20:19:00,58.3,32.2,29.75,West,263,0.0,7.0,37,0.00,,,0.00,meteohub,2013-04-13 00:19:00,
2013-04-12 20:24:00,57.9,32.5,29.76,West,266,0.0,7.0,38,0.00,,,0.00,meteohub,2013-04-13 00:24:00,
2013-04-12 20:29:00,57.6,32.2,29.76,WSW,252,1.0,3.0,38,0.00,,,0.00,meteohub,2013-04-13 00:29:00,
2013-04-12 20:34:00,57.4,32.5,29.77,WSW,252,1.0,5.0,39,0.00,,,0.00,meteohub,2013-04-13 00:34:00,
2013-04-12 20:39:00,57.0,32.4,29.77,West,269,0.0,5.0,39,0.00,,,0.00,meteohub,2013-04-13 00:39:00,
2013-04-12 20:44:00,56.8,32.7,29.77,WSW,253,0.0,5.0,40,0.00,,,0.00,meteohub,2013-04-13 00:44:00,
2013-04-12 20:49:00,56.7,33.3,29.78,SW,236,0.0,4.0,41,0.00,,,0.00,meteohub,2013-04-13 00:49:00,
2013-04-12 20:54:00,56.5,33.1,29.78,SSW,208,4.0,4.0,41,0.00,,,0.00,meteohub,2013-04-13 00:54:00,
2013-04-12 20:59:00,56.1,32.7,29.78,WSW,258,1.0,5.0,41,0.00,,,0.00,meteohub,2013-04-13 00:59:00,
2013-04-12 21:04:00,56.1,33.3,29.79,WSW,252,3.0,5.0,42,0.00,,,0.00,meteohub,2013-04-13 01:04:00,
2013-04-12 21:09:00,55.8,33.1,29.79,WNW,285,0.0,5.0,42,0.00,,,0.00,meteohub,2013-04-13 01:09:00,
2013-04-12 21:14:00,55.6,32.9,29.79,NW,318,0.0,4.0,42,0.00,,,0.00,meteohub,2013-04-13 01:14:00,
2013-04-12 21:19:00,55.4,32.7,29.79,NNE,16,5.0,5.0,42,0.00,,,0.00,meteohub,2013-04-13 01:19:00,
2013-04-12 21:24:00,55.4,32.7,29.80,West,262,1.0,4.0,42,0.00,,,0.00,meteohub,2013-04-13 01:24:00,
2013-04-12 21:29:00,55.2,33.1,29.80,West,280,0.0,7.0,43,0.00,,,0.00,meteohub,2013-04-13 01:29:00,
2013-04-12 21:34:00,55.0,32.9,29.81,NW,315,0.0,7.0,43,0.00,,,0.00,meteohub,2013-04-13 01:34:00,
2013-04-12 21:39:00,54.7,33.3,29.81,NNE,16,3.0,7.0,44,0.00,,,0.00,meteohub,2013-04-13 01:39:00,
2013-04-12 21:44:00,54.3,32.9,29.81,WNW,288,1.0,5.0,44,0.00,,,0.00,meteohub,2013-04-13 01:44:00,
2013-04-12 21:49:00,54.1,33.3,29.81,North,357,0.0,3.0,45,0.00,,,0.00,meteohub,2013-04-13 01:49:00,
2013-04-12 21:54:00,54.0,33.1,29.81,NW,306,2.0,3.0,45,0.00,,,0.00,meteohub,2013-04-13 01:54:00,
2013-04-12 21:59:00,53.8,33.4,29.81,WNW,302,0.0,3.0,46,0.00,,,0.00,meteohub,2013-04-13 01:59:00,
2013-04-12 22:04:00,53.6,33.8,29.81,NNW,334,2.0,4.0,47,0.00,,,0.00,meteohub,2013-04-13 02:04:00,
2013-04-12 22:09:00,53.4,33.6,29.81,NNW,338,4.0,5.0,47,0.00,,,0.00,meteohub,2013-04-13 02:09:00,
2013-04-12 22:14:00,53.2,34.0,29.81,North,1,2.0,5.0,48,0.00,,,0.00,meteohub,2013-04-13 02:14:00,
2013-04-12 22:19:00,53.1,34.3,29.82,NE,46,0.0,6.0,49,0.00,,,0.00,meteohub,2013-04-13 02:19:00,
2013-04-12 22:24:00,52.7,34.2,29.82,West,269,0.0,6.0,49,0.00,,,0.00,meteohub,2013-04-13 02:24:00,
2013-04-12 22:29:00,52.3,34.2,29.81,ESE,113,0.0,4.0,50,0.00,,,0.00,meteohub,2013-04-13 02:29:00,
2013-04-12 22:34:00,52.2,34.2,29.81,WNW,286,0.0,3.0,50,0.00,,,0.00,meteohub,2013-04-13 02:34:00,
2013-04-12 22:39:00,52.0,34.3,29.82,NNW,334,1.0,3.0,51,0.00,,,0.00,meteohub,2013-04-13 02:39:00,
2013-04-12 22:44:00,51.8,34.7,29.82,WNW,297,0.0,3.0,52,0.00,,,0.00,meteohub,2013-04-13 02:44:00,
2013-04-12 22:49:00,51.6,34.5,29.82,NW,325,2.0,3.0,52,0.00,,,0.00,meteohub,2013-04-13 02:49:00,
2013-04-12 22:54:00,51.6,35.1,29.81,NE,45,4.0,4.0,53,0.00,,,0.00,meteohub,2013-04-13 02:54:00,
2013-04-12 23:00:00,51.3,34.7,29.81,NE,49,8.0,8.0,53,0.00,,,0.00,meteohub,2013-04-13 03:00:00,
2013-04-12 23:05:00,51.1,35.1,29.81,ENE,59,3.0,7.0,54,0.00,,,0.00,meteohub,2013-04-13 03:05:00,
2013-04-12 23:10:00,50.5,35.4,29.81,NE,44,5.0,9.0,56,0.00,,,0.00,meteohub,2013-04-13 03:10:00,
2013-04-12 23:15:00,50.2,36.3,29.81,NNE,29,4.0,9.0,59,0.00,,,0.00,meteohub,2013-04-13 03:15:00,
2013-04-12 23:20:00,49.8,36.5,29.81,NNE,12,3.0,7.0,60,0.00,,,0.00,meteohub,2013-04-13 03:20:00,
2013-04-12 23:25:00,49.6,36.3,29.80,NNE,27,2.0,7.0,60,0.00,,,0.00,meteohub,2013-04-13 03:25:00,
2013-04-12 23:30:00,49.3,35.6,29.80,West,277,0.0,7.0,59,0.00,,,0.00,meteohub,2013-04-13 03:30:00,
2013-04-12 23:35:00,49.3,35.6,29.80,NE,43,0.0,7.0,59,0.00,,,0.00,meteohub,2013-04-13 03:35:00,
2013-04-12 23:40:00,49.1,35.4,29.80,West,270,0.0,7.0,59,0.00,,,0.00,meteohub,2013-04-13 03:40:00,
2013-04-12 23:45:00,49.1,35.8,29.81,West,260,0.0,5.0,60,0.00,,,0.00,meteohub,2013-04-13 03:45:00,
2013-04-12 23:50:00,48.9,36.1,29.80,SSE,149,1.0,1.0,61,0.00,,,0.00,meteohub,2013-04-13 03:50:00,
2013-04-12 23:55:00,48.7,36.7,29.81,ENE,75,0.0,1.0,63,0.00,,,0.00,meteohub,2013-04-13 03:55:00,